FOX-1D (AO-92) (43137 NORAD) Tracking and Keplerian Element Data

This shows tracking and keplerian element data for the satellite.

Feedback or suggestion? Click here.




ElementValue
Catalog43137
NameFOX-1D (AO-92)
Epoch Orbit15415
Epoch Day294.87344462
Epoch Year2020
RAAN5.1242
Inclination97.4346
Eccentricity0.0008489
Argument of Perigee345.2831
Mean Anonmoly14.8158
Mean Motion15.24367107
Decay Rate1.394E-05
L11 43137U 18004AC 20294.87344462 .00001394 00000-0 59832-4 0 9994
L22 43137 97.4346 5.1242 0008489 345.2831 14.8158 15.24367107154151

Live tracking and technical data element details for FOX-1D (AO-92) (NORAD 43137). FOX-1D (AO-92) can be tracked NOW for your location showing map with azimuth and elevation plus other details from your city location.

Track the satellite on the map from your city or location and see movement details for azimuth, elevation, latitude, longitude, range, height, and movement on the map or in text.







IsCatalogInMostPopularTable: catalog: 43137, numindb: 1810
Update: records affected: 1



GetName: 43137 FOX-1D (AO-92)

Hit Count: updated at: Thu, 22 Oct 2020 02:44:02 GMT